Find Starlink 31753

NORAD ID: 59484 Int'l Des: 2024-071 Owner: SPXS Country: US Constellation: starlink operational
LEOCIRCULAR

現在のビュー

3D地球を読み込み中...

About Starlink 31753

Starlink 31753 (NORAD 59484) is a starlink constellation satellite (v2 mini) launched Apr 13, 2024 by SPXS of US. It operates in LEO, CIRCULAR orbit with a mass of 730.00 kg.

Starlink 31753について

説明を読み込み中...

次回通過

Passes for default location (London). Set your location on the main map for personalized predictions.

高度履歴

Loading altitude history...

軌道要素

1 59484U 24071A 26171.27394829 .00001219 00000-0 53800-4 0 9998
2 59484 43.0018 120.4790 0000955 271.6195 88.4548 15.27584820123893
Epoch: Jun 20, 2026 • Age: 10 hours

現在のステータス

高度 484.4 km
速度 7.63 km/s
衛星直下点 31.81°N, 99.49°E
打ち上げ日 Apr 13, 2024
運用期間 2.1 years
タイプ internet

技術仕様

分類 Payload
質量 730.00 kg
乾燥質量 700.00 kg
総質量 730.00 kg
長さ 0.30 m
直径 4.10 m
スパン 29.00 m
形状 Box + pan
製造者 SPXS
バスタイプ Starlink V2M
フェーズステータス In Orbit
所有者/国 SPXS/US

Most Searched